Flag for Egypt Weather past 2 weeks in Port Said, Egypt

Now
81 °F

Scattered clouds.


Feels Like: 85 °F
Forecast: 78 / 86 °F
Wind: 7 mph from Northwest

Location: Port Said Airport

Current Time: Jul 26, 2014 at 10:11:08 AM

Latest Report: Jul 26, 2014 at 9:00 AM


Visibility: N/A

Pressure: 29.80 "Hg

Humidity: 74%

Dew point: 72 °F

Location of Port SaidLocation

Historic Weather in Port Said — Graph

°F

Port Said temperature yesterday

Maximum temperature yesterday: 86 °F (at 12:00 PM)
Minimum temperature yesterday: 77 °F (at 6:00 AM)
Average temperature yesterday: 81 °F

Past Weeks' High & Low Weather Summary

 TemperatureHumidityPressure
High90 °F (Jul 12, 3:00 PM)89% (Jul 12, 10:00 PM)29.92 "Hg (Jul 12, 10:00 PM)
Low75 °F (Jul 15, 8:00 PM)48% (Jul 12, 9:00 PM)29.74 "Hg (Jul 20, 4:00 PM)
Average81 °F73%29.81 "Hg
* Reported Jul 11 8:00 AM — Jul 26 8:00 AM, Port Said, Weather by CustomWeather, © 2014

Note: Actual official high and low records may vary slightly from our data, if they occured in-between our weather recording intervals... More about our weather records

Advertising

Port Said weather history for previous 24 hours

 ConditionsComfort  
Time TempWeatherWind HumidityBarometerVisibility
8:00 AM
Jul 26
79 °FScattered clouds.5 mph79%29.77 "HgN/A
7:00 AM77 °FScattered clouds.5 mph83%29.77 "HgN/A
6:00 AM77 °FPassing clouds.6 mph83%29.74 "HgN/A
5:00 AM77 °FPassing clouds.7 mph83%29.74 "HgN/A
4:00 AM77 °FClear.5 mph83%29.74 "Hg10 mi
3:00 AM79 °FClear.5 mph79%29.74 "Hg10 mi
2:00 AM79 °FClear.7 mph79%29.74 "Hg10 mi
1:00 AM79 °FClear.8 mph79%29.74 "Hg10 mi
12:00 AM79 °FClear.8 mph79%29.77 "Hg10 mi
11:00 PM
Jul 25
79 °FClear.10 mph79%29.77 "Hg10 mi
10:00 PM79 °FClear.14 mph79%29.77 "Hg10 mi
9:00 PM79 °FClear.14 mph79%29.77 "Hg10 mi
8:00 PM81 °FClear.15 mph74%29.74 "Hg10 mi
7:00 PM81 °FClear.12 mph74%29.74 "Hg10 mi
6:00 PM82 °FSunny.13 mph70%29.74 "Hg10 mi
5:00 PM82 °FSunny.14 mph70%29.74 "Hg10 mi
4:00 PM84 °FSunny.10 mph66%29.74 "Hg10 mi
3:00 PM84 °FSunny.12 mph62%29.74 "Hg10 mi
2:00 PM84 °FSunny.12 mph66%29.74 "Hg10 mi
1:00 PM84 °FPassing clouds.8 mph62%29.77 "HgN/A
12:00 PM86 °FScattered clouds.10 mph59%29.77 "HgN/A
11:00 AM84 °FScattered clouds.5 mph58%29.77 "HgN/A
10:00 AM82 °FScattered clouds.5 mph62%29.77 "HgN/A
Weather by CustomWeather, © 2014

See weather overviewHow to use our weather pages